Starlink 6086

operational
NORAD ID: 56545 Int'l Des: 2023-065 Owner: SPXS Country: US Constellation: starlink
LEOCIRCULAR

Starlink 6086について

説明を読み込み中...

リアルタイム位置

3D地球を読み込み中...

次回通過

高度履歴

Altitude vs Time

uPlot chart will show altitude changes over time

軌道要素

1 56545U 23065AU 26063.16670139 .00056406 00000-0 35551-2 0 9993
2 56545 43.0003 253.0855 0000954 283.9462 205.2304 15.08356881 5812
Epoch: Mar 4, 2026 • Age: 18 hours

現在のステータス

高度 541.7 km
速度 7.60 km/s
衛星直下点 27.18°N, 41.08°W
打ち上げ日 May 14, 2023
運用期間 2.8 years
タイプ internet

技術仕様

分類 Payload
質量 305.00 kg
乾燥質量 290.00 kg
総質量 305.00 kg
長さ 0.20 m
直径 2.80 m
スパン 9.00 m
形状 Box + pan
製造者 SPXS
バスタイプ Starlink
フェーズステータス In Orbit
所有者/国 SPXS/US

大規模コンステレーション

Loading constellations...